This demonstration page uses our WeatherBlox Daily Observations layout. Learn more.

Left ArrowRight Arrow

Hourly Observations for September 7, 2017

Temp ( °F °C ) Dew Point ( °F °C ) Humidity (%) Winds ( mph kmh ) Pressure ( in mb ) Visibility ( mi km ) Precip ( " mm )
12:15 am 00:15 Cloudy 61 16 61 16 100 100 Calm 29.94 1014 7 11 0.00 0.00
12:35 am 00:35 Cloudy 61 16 61 16 100 100 Calm 29.94 1014 10 16 0.00 0.00
12:55 am 00:55 Cloudy 61 16 61 16 100 100 Calm 29.94 1014 7 11 0.00 0.00
1:15 am 01:15 Mostly Cloudy 61 16 61 16 100 100 Calm 29.94 1014 10 16 0.00 0.00
1:35 am 01:35 Cloudy with Mist and Fog 59 15 59 15 100 100 Calm 29.94 1014 1 1 0.00 0.00
1:55 am 01:55 Cloudy with Fog 61 16 61 16 100 100 Calm 29.94 1014 1 1 0.00 0.00
2:15 am 02:15 Cloudy with Mist and Fog 59 15 59 15 100 100 Calm 29.94 1014 3 5 0.00 0.00
2:35 am 02:35 Cloudy with Mist and Fog 59 15 59 15 100 100 WSW 3 6 29.94 1014 1 2 0.00 0.00
2:55 am 02:55 Cloudy with Mist and Fog 59 15 59 15 100 100 Calm 29.94 1014 1 1 0.00 0.00
3:15 am 03:15 Cloudy with Mist and Fog 59 15 59 15 100 100 W 5 7 29.94 1014 4 6 0.00 0.00
3:35 am 03:35 Cloudy with Mist and Fog 59 15 59 15 100 100 Calm 29.94 1014 3 5 0.00 0.00
3:55 am 03:55 Cloudy with Mist and Fog 59 15 59 15 100 100 W 6 9 29.94 1014 2 3 0.00 0.00
4:15 am 04:15 Cloudy 59 15 59 15 100 100 W 6 9 29.94 1014 7 11 0.00 0.00
4:35 am 04:35 Mostly Cloudy 57 14 57 14 100 100 WNW 6 9 29.94 1014 10 16 0.00 0.00
4:55 am 04:55 Partly Cloudy 55 13 55 13 100 100 W 3 6 29.94 1014 10 16 0.00 0.00
5:15 am 05:15 Partly Cloudy 55 13 55 13 100 100 W 3 6 29.94 1014 7 11 0.00 0.00
5:35 am 05:35 Partly Cloudy with Mist and Fog 55 13 55 13 100 100 Calm 29.94 1014 5 8 0.00 0.00
5:55 am 05:55 Clear 55 13 55 13 100 100 W 6 9 29.94 1014 7 11 0.00 0.00
6:15 am 06:15 Clear 55 13 55 13 100 100 Calm 29.94 1014 10 16 0.00 0.00
6:35 am 06:35 Clear 55 13 55 13 100 100 Calm 29.94 1014 10 16 0.00 0.00
6:55 am 06:55 Sunny 55 13 55 13 100 100 Calm 29.97 1015 7 11 0.00 0.00
7:15 am 07:15 Sunny 54 12 54 12 100 100 Calm 29.97 1015 10 16 0.00 0.00
7:35 am 07:35 Sunny 55 13 55 13 100 100 Calm 29.97 1015 10 16 0.00 0.00
7:55 am 07:55 Sunny 55 13 55 13 100 100 Calm 29.97 1015 10 16 0.00 0.00
8:15 am 08:15 Sunny 55 13 55 13 100 100 Calm 29.97 1015 10 16 0.00 0.00
8:35 am 08:35 Sunny 59 15 59 15 100 100 Calm 29.97 1015 10 16 0.00 0.00
8:55 am 08:55 Sunny 61 16 59 15 94 94 Calm 30.00 1016 10 16 0.00 0.00
9:15 am 09:15 Sunny 63 17 59 15 88 88 SW 5 7 30.00 1016 10 16 0.00 0.00
9:35 am 09:35 Sunny 63 17 59 15 88 88 W 9 15 30.00 1016 10 16 0.01 0.25
9:55 am 09:55 Sunny 64 18 57 14 78 78 WNW 7 11 30.00 1016 10 16 0.01 0.25
10:15 am 10:15 Sunny 64 18 55 13 73 73 NW 13 20 30.00 1016 10 16 0.00 0.00
10:35 am 10:35 Sunny 66 19 55 13 68 68 W 13 20 30.00 1016 10 16 0.00 0.00
10:55 am 10:55 Sunny 66 19 55 13 68 68 WNW 15 24 30.00 1016 10 16 0.00 0.00
11:15 am 11:15 Sunny 68 20 55 13 64 64 NW 13 20 30.03 1017 10 16 0.00 0.00
11:35 am 11:35 Sunny 68 20 57 14 69 69 W 17 28 30.03 1017 10 16 0.00 0.00
11:55 am 11:55 Sunny 70 21 55 13 60 60 WNW 16 26 30.00 1016 10 16 0.00 0.00
12:15 pm 12:15 Partly Cloudy 70 21 57 14 64 64 W 16 26 30.03 1017 10 16 0.00 0.00
12:35 pm 12:35 Partly Cloudy 70 21 55 13 60 60 W 13 20 30.00 1016 10 16 0.00 0.00
12:55 pm 12:55 Partly Cloudy 72 22 55 13 57 57 WNW 17 28 30.00 1016 10 16 0.00 0.00
1:15 pm 13:15 Partly Cloudy 70 21 54 12 57 57 W 13 20 30.03 1017 10 16 0.00 0.00
1:35 pm 13:35 Sunny 72 22 54 12 53 53 NW 16 26 30.00 1016 10 16 0.00 0.00
1:55 pm 13:55 Partly Cloudy 73 23 54 12 50 50 WNW 15 24 30.03 1017 10 16 0.00 0.00
2:15 pm 14:15 Mostly Cloudy 72 22 54 12 53 53 W 15 24 30.03 1017 10 16 0.00 0.00
2:35 pm 14:35 Mostly Cloudy 72 22 54 12 53 53 W 12 19 30.03 1017 10 16 0.00 0.00
2:55 pm 14:55 Mostly Cloudy 72 22 52 11 50 50 W 14 22 30.00 1016 10 16 0.00 0.00
3:15 pm 15:15 Mostly Cloudy 70 21 54 12 57 57 WNW 10 17 30.03 1017 10 16 0.00 0.00
3:35 pm 15:35 Mostly Cloudy 70 21 52 11 53 53 WSW 8 13 30.03 1017 10 16 0.00 0.00
3:55 pm 15:55 Cloudy 70 21 54 12 57 57 WNW 10 17 30.03 1017 10 16 0.00 0.00
4:15 pm 16:15 Cloudy 72 22 54 12 53 53 NW 8 13 30.03 1017 10 16 0.00 0.00
4:35 pm 16:35 Mostly Cloudy 70 21 54 12 57 57 WNW 9 15 30.03 1017 10 16 0.00 0.00
4:55 pm 16:55 Mostly Cloudy 72 22 54 12 53 53 WNW 9 15 30.03 1017 10 16 0.00 0.00
5:15 pm 17:15 Partly Cloudy 72 22 52 11 50 50 WNW 10 17 30.03 1017 10 16 0.00 0.00
5:35 pm 17:35 Sunny 70 21 54 12 57 57 WNW 12 19 30.03 1017 10 16 0.00 0.00
5:55 pm 17:55 Partly Cloudy 68 20 54 12 60 60 W 5 7 30.03 1017 10 16 0.00 0.00
6:15 pm 18:15 Partly Cloudy 70 21 54 12 57 57 W 3 6 30.03 1017 10 16 0.00 0.00
6:35 pm 18:35 Partly Cloudy 70 21 54 12 57 57 WNW 6 9 30.03 1017 10 16 0.00 0.00
6:55 pm 18:55 Partly Cloudy 68 20 55 13 64 64 W 5 7 30.03 1017 10 16 0.00 0.00
7:15 pm 19:15 Sunny 66 19 54 12 64 64 W 3 6 30.03 1017 10 16 0.00 0.00
7:35 pm 19:35 Clear 64 18 55 13 73 73 W 5 7 30.03 1017 10 16 0.00 0.00
7:55 pm 19:55 Clear 63 17 55 13 77 77 W 5 7 30.03 1017 10 16 0.00 0.00
8:15 pm 20:15 Clear 61 16 55 13 83 83 W 5 7 30.06 1018 10 16 0.00 0.00
8:35 pm 20:35 Clear 61 16 55 13 83 83 W 6 9 30.06 1018 10 16 0.00 0.00
8:55 pm 20:55 Clear 57 14 55 13 94 94 W 7 11 30.06 1018 10 16 0.00 0.00
9:15 pm 21:15 Clear 59 15 54 12 82 82 NW 6 9 30.06 1018 10 16 0.00 0.00
9:35 pm 21:35 Clear 57 14 54 12 88 88 WNW 6 9 30.09 1019 10 16 0.00 0.00
9:55 pm 21:55 Clear 59 15 54 12 82 82 Calm 30.09 1019 10 16 0.00 0.00
10:15 pm 22:15 Clear 59 15 54 12 82 82 Calm 30.09 1019 10 16 0.00 0.00
10:35 pm 22:35 Clear 57 14 54 12 88 88 W 5 7 30.09 1019 10 16 0.00 0.00
10:55 pm 22:55 Clear 55 13 54 12 94 94 W 5 7 30.09 1019 10 16 0.00 0.00
11:15 pm 23:15 Clear 57 14 54 12 88 88 SSW 3 6 30.09 1019 10 16 0.00 0.00
11:35 pm 23:35 Clear 55 13 52 11 88 88 W 5 7 30.09 1019 10 16 0.00 0.00
11:55 pm 23:55 Clear 54 12 54 12 100 100 Calm 30.12 1020 10 16 0.00 0.00

Powered by AerisWeather